{"data":{"norad_id":50489,"intl_designator":"2021-132W","name":"ONEWEB-0412","alt_names":[],"object_type":"PAYLOAD","status":"ACTIVE","operator":null,"country":"UK","launch_date":"2021-12-27","launch_site_code":"TYMSC","launch_vehicle":null,"mission":null,"orbit_class":"UNKNOWN","rcs_meters":null,"size_class":null,"mass_kg":null,"dimensions":null,"purposes":["comms"],"wikipedia_slug":null,"has_3d_model":false,"image_url":null,"decayed_at":null,"tle_current":{"epoch":"2026-09-19T22:48:43.415136Z","epoch_age_seconds":73357,"freshness":"FRESH","line1":"1 50489U 21132W   26262.95050249 -.00000028  00000+0 -10357-3 0  9997","line2":"2 50489  87.9161 316.6277 0002242  91.2259 268.9130 13.18686280234146","mean_motion":13.1868628,"eccentricity":0.0002242,"inclination_deg":87.9161,"raan_deg":316.6277,"arg_perigee_deg":91.2259,"mean_anomaly_deg":268.913,"bstar":-0.00010357,"rev_number":23414,"period_min":109.19958915475,"perigee_km":1188.0453371112,"apogee_km":1191.4387740798,"semimajor_km":7567.8790555955,"source":"CELESTRAK","updated_at":"2026-09-20T09:00:44.703678Z"}}}